TimeEDT,TemperatureF,Dew PointF,Humidity,Sea Level PressureIn,VisibilityMPH,Wind Direction,Wind SpeedMPH,Gust SpeedMPH,PrecipitationIn,Events,Conditions,WindDirDegrees,DateUTC
12:15 AM,80.6,75.2,84,30.06,10.0,ESE,6.9,-,0.00,,Clear,110,2013-07-14 04:15:00
12:35 AM,80.6,73.4,79,30.06,10.0,ESE,6.9,-,0.00,,Clear,110,2013-07-14 04:35:00
12:55 AM,80.6,73.4,79,30.07,10.0,East,8.1,-,0.00,,Clear,100,2013-07-14 04:55:00
1:15 AM,80.6,73.4,79,30.07,10.0,ESE,6.9,-,0.00,,Partly Cloudy,110,2013-07-14 05:15:00
1:35 AM,80.6,73.4,79,30.07,10.0,East,4.6,-,0.00,,Clear,100,2013-07-14 05:35:00
1:55 AM,80.6,73.4,79,30.07,10.0,ESE,5.8,-,0.00,,Clear,120,2013-07-14 05:55:00
2:15 AM,80.6,75.2,84,30.07,10.0,ESE,5.8,-,0.00,,Scattered Clouds,110,2013-07-14 06:15:00
2:35 AM,78.8,73.4,83,30.07,10.0,SE,5.8,-,0.00,,Scattered Clouds,140,2013-07-14 06:35:00
2:55 AM,80.6,73.4,79,30.06,10.0,ESE,6.9,-,0.00,,Partly Cloudy,110,2013-07-14 06:55:00
3:15 AM,80.6,73.4,79,30.05,10.0,ESE,6.9,-,0.00,,Partly Cloudy,120,2013-07-14 07:15:00
3:35 AM,80.6,73.4,79,30.05,10.0,ESE,5.8,-,0.00,,Partly Cloudy,120,2013-07-14 07:35:00
3:55 AM,80.6,73.4,79,30.05,10.0,East,9.2,-,0.00,,Partly Cloudy,90,2013-07-14 07:55:00
4:15 AM,80.6,73.4,79,30.05,10.0,East,4.6,-,0.00,,Partly Cloudy,100,2013-07-14 08:15:00
4:35 AM,80.6,73.4,79,30.05,10.0,East,3.5,-,0.00,,Partly Cloudy,90,2013-07-14 08:35:00
4:55 AM,80.6,73.4,79,30.06,10.0,ESE,5.8,-,0.00,,Scattered Clouds,120,2013-07-14 08:55:00
5:15 AM,78.8,73.4,83,30.06,9.0,ESE,3.5,-,0.00,,Scattered Clouds,110,2013-07-14 09:15:00
5:35 AM,78.8,73.4,83,30.06,10.0,East,4.6,-,0.00,,Partly Cloudy,100,2013-07-14 09:35:00
5:55 AM,78.8,73.4,83,30.06,10.0,East,4.6,-,0.00,,Partly Cloudy,100,2013-07-14 09:55:00
6:15 AM,78.8,73.4,83,30.07,10.0,Calm,Calm,-,0.00,,Scattered Clouds,0,2013-07-14 10:15:00
6:35 AM,80.6,73.4,79,30.07,10.0,ENE,4.6,-,0.00,,Light Drizzle,60,2013-07-14 10:35:00
6:50 AM,77.0,71.6,83,30.07,5.0,Calm,Calm,-,N/A,Rain,Light Rain,0,2013-07-14 10:50:00
7:50 AM,73.4,71.6,94,30.09,1.0,East,6.9,-,N/A,Rain,Rain,90,2013-07-14 11:50:00
8:50 AM,75.2,73.4,94,30.12,2.0,East,9.2,-,N/A,Rain,Rain,90,2013-07-14 12:50:00
9:50 AM,75.2,71.6,89,30.18,5.0,ENE,11.5,20.7,N/A,Rain,Light Rain,60,2013-07-14 13:50:00
10:50 AM,80.6,75.2,84,30.17,7.0,SSE,11.5,20.7,N/A,,Scattered Clouds,150,2013-07-14 14:50:00
11:50 AM,82.4,71.6,70,30.16,10.0,SE,8.1,-,N/A,,Scattered Clouds,140,2013-07-14 15:50:00
12:25 PM,75.2,71.6,89,30.18,1.5,ESE,8.1,26.5,N/A,Rain,Light Rain,120,2013-07-14 16:25:00
12:50 PM,75.2,73.4,94,30.18,2.0,ESE,5.8,-,N/A,,Partly Cloudy,120,2013-07-14 16:50:00
1:50 PM,78.8,73.4,83,30.19,10.0,SSE,5.8,-,N/A,,Scattered Clouds,150,2013-07-14 17:50:00
3:27 PM,73.4,69.8,88,30.19,3.0,South,10.4,-,N/A,Rain,Rain,170,2013-07-14 19:27:00
3:50 PM,73.4,69.8,88,30.19,5.0,SSE,6.9,17.3,N/A,Rain,Light Rain,160,2013-07-14 19:50:00
4:19 PM,75.2,71.6,89,30.19,10.0,SSE,4.6,-,N/A,,Scattered Clouds,160,2013-07-14 20:19:00
4:50 PM,78.8,73.4,83,30.17,10.0,SSE,5.8,-,N/A,,Scattered Clouds,160,2013-07-14 20:50:00
5:50 PM,78.8,73.4,83,30.17,10.0,SE,5.8,-,N/A,,Mostly Cloudy,140,2013-07-14 21:50:00
6:15 PM,78.8,71.6,78,30.16,10.0,SE,5.8,-,N/A,,Scattered Clouds,130,2013-07-14 22:15:00
6:50 PM,80.6,71.6,74,30.16,10.0,ESE,4.6,-,N/A,,Partly Cloudy,120,2013-07-14 22:50:00
7:50 PM,78.8,71.6,78,30.16,10.0,East,4.6,-,N/A,,Partly Cloudy,90,2013-07-14 23:50:00
9:15 PM,77.0,75.2,94,30.18,10.0,East,3.5,-,0.00,,Clear,90,2013-07-15 01:15:00
9:35 PM,77.0,75.2,94,30.19,10.0,ENE,4.6,-,0.00,,Clear,60,2013-07-15 01:35:00
9:55 PM,78.8,75.2,89,30.20,10.0,NE,3.5,-,0.00,,Clear,50,2013-07-15 01:55:00
10:15 PM,78.8,75.2,89,30.20,10.0,NE,4.6,-,0.00,,Clear,40,2013-07-15 02:15:00
10:35 PM,78.8,75.2,89,30.20,10.0,NNE,4.6,-,0.00,,Clear,30,2013-07-15 02:35:00
10:55 PM,78.8,75.2,89,30.20,10.0,ENE,4.6,-,0.00,,Partly Cloudy,60,2013-07-15 02:55:00
11:15 PM,78.8,75.2,89,30.20,10.0,NE,5.8,-,0.00,,Partly Cloudy,40,2013-07-15 03:15:00
11:35 PM,80.6,75.2,84,30.20,10.0,NE,4.6,-,0.00,,Clear,40,2013-07-15 03:35:00
11:55 PM,80.6,75.2,84,30.20,10.0,NE,8.1,-,0.00,,Clear,40,2013-07-15 03:55:00